Weather History for Kirkwall, United Kingdom

Change the Weather History Date:

Friday, January 4, 2013

  Actual Average (EGPC) Record (EGPC)
Temperature  
Mean Temperature 49 °F -  
Max Temperature 51 °F 41 °F 52 °F (2013)
Min Temperature 47 °F 34 °F 26 °F (1997)
Degree Days  
Heating Degree Days 16    
Moisture  
Dew Point 46 °F    
Average Humidity 82    
Maximum Humidity 87    
Minimum Humidity 76    
Precipitation  
Precipitation 0.00 in - - ()
Sea Level Pressure  
Sea Level Pressure 30.23 in    
Wind  
Wind Speed 23 mph ()    
Max Wind Speed 34 mph    
Max Gust Speed 41 mph    
Visibility 6.4 miles    
Events Rain    
Averages and records for this station are not official NWS values.
T = Trace of Precipitation, MM = Missing Value Source: Averaged Metar Reports

Daily Weather History Graph

Daily Weather History Graph

Search for Another Location

Airport:

Trip Planner

Search our weather history database for the weather conditions in past years. The results will help you decide how hot, cold, wet, or windy it might be!

Date:

Astronomy

Jan. 04, 2013 Rise Set
Actual Time 9:02 AM GMT 3:30 PM GMT
Civil Twilight 8:09 AM GMT 4:23 PM GMT
Nautical Twilight 7:16 AM GMT 5:17 PM GMT
Astronomical Twilight 6:26 AM GMT 6:06 PM GMT
Moon No Moon Rise 10:49 AM GMT (1/4)
Length of Visible Light 8h 13m
Length of Day
6h 27m
Waning Gibbous, 57% of the Moon is Illuminated
Jan 4
Waning Gibbous
Jan 5
Last Quarter
Jan 11
New
Jan 18
First Quarter
Jan 27
Full

Hourly Weather History & Observations

Time (GMT) Temp. Dew Point Humidity Pressure Visibility Wind Dir Wind Speed Gust Speed Precip Events Conditions
12:20 AM 53.6 °F 48.2 °F 82% 30.09 in 6.2 mi West 25.3 mph - N/A   Mostly Cloudy
12:50 AM 53.6 °F 48.2 °F 82% 30.09 in 6.2 mi West 28.8 mph 40.3 mph N/A   Mostly Cloudy
1:20 AM 53.6 °F 48.2 °F 82% 30.09 in 5.0 mi West 27.6 mph 39.1 mph N/A   Overcast
1:50 AM 53.6 °F 48.2 °F 82% 30.09 in 5.0 mi West 25.3 mph 38.0 mph N/A   Mostly Cloudy
2:20 AM 53.6 °F 48.2 °F 82% 30.09 in 3.1 mi West 29.9 mph - N/A   Light Drizzle
2:50 AM 51 °F 48 °F 84% 30.13 in 6 mi WSW 31.1 mph - - Rain Rain
2:50 AM 53.6 °F 48.2 °F 82% 30.12 in 5.0 mi West 27.6 mph - N/A   Mostly Cloudy
3:20 AM 51.8 °F 46.4 °F 82% 30.12 in 5.0 mi West 25.3 mph - N/A   Overcast
3:50 AM 51.8 °F 46.4 °F 82% 30.15 in 4.3 mi West 20.7 mph 32.2 mph N/A   Overcast
4:20 AM 53.6 °F 46.4 °F 77% 30.15 in 5.0 mi West 24.2 mph 35.7 mph N/A   Overcast
4:50 AM 51.8 °F 46.4 °F 82% 30.15 in 4.3 mi West 26.5 mph - N/A   Overcast
5:20 AM 51.8 °F 46.4 °F 82% 30.15 in 5.0 mi West 26.5 mph - N/A   Overcast
5:50 AM 50 °F 46 °F 83% 30.17 in 7 mi WSW 24.2 mph - -  
5:50 AM 51.8 °F 46.4 °F 82% 30.15 in 5.0 mi West 23.0 mph - N/A   Overcast
6:20 AM 51.8 °F 46.4 °F 82% 30.18 in 5.6 mi West 21.9 mph - N/A Rain Light Rain Showers
6:50 AM 51.8 °F 46.4 °F 82% 30.15 in 5.6 mi West 24.2 mph - N/A   Mostly Cloudy
7:20 AM 51.8 °F 46.4 °F 82% 30.18 in 6.2 mi West 27.6 mph - N/A   Mostly Cloudy
7:50 AM 51.8 °F 46.4 °F 82% 30.18 in 6.2 mi West 27.6 mph - N/A   Mostly Cloudy
8:20 AM 51.8 °F 46.4 °F 82% 30.21 in 6.2 mi West 26.5 mph - N/A   Mostly Cloudy
8:50 AM 51 °F 46 °F 78% 30.21 in 14 mi WSW 28.8 mph - -   Scattered Clouds
8:50 AM 51.8 °F 46.4 °F 82% 30.21 in 6.2 mi West 25.3 mph - N/A   Mostly Cloudy
9:20 AM 51.8 °F 46.4 °F 82% 30.21 in 6.2 mi West 25.3 mph - N/A   Scattered Clouds
9:50 AM 51.8 °F 46.4 °F 82% 30.21 in 6.2 mi West 23.0 mph - N/A   Partly Cloudy
10:20 AM 51.8 °F 46.4 °F 82% 30.24 in 6.2 mi West 25.3 mph - N/A   Partly Cloudy
10:50 AM 50.0 °F 46.4 °F 87% 30.24 in 6.2 mi West 26.5 mph - N/A   Partly Cloudy
11:20 AM 51.8 °F 46.4 °F 82% 30.24 in 6.2 mi West 31.1 mph - N/A   Partly Cloudy
11:50 AM 51 °F 46 °F 79% 30.25 in 14 mi West 33.4 mph - -   Mostly Cloudy
11:50 AM 51.8 °F 46.4 °F 82% 30.24 in 6.2 mi West 33.4 mph - N/A   Partly Cloudy
12:20 PM 51.8 °F 46.4 °F 82% 30.24 in 6.2 mi West 32.2 mph - N/A   Partly Cloudy
12:50 PM 51.8 °F 46.4 °F 82% 30.24 in 6.2 mi West 29.9 mph 41.4 mph N/A   Partly Cloudy
1:20 PM 51.8 °F 46.4 °F 82% 30.24 in 6.2 mi West 34.5 mph - N/A   Partly Cloudy
1:50 PM 51.8 °F 46.4 °F 82% 30.24 in 6.2 mi West 25.3 mph - N/A   Partly Cloudy
2:20 PM 51.8 °F 46.4 °F 82% 30.24 in 6.2 mi West 23.0 mph - N/A   Partly Cloudy
2:50 PM 49 °F 46 °F 85% 30.27 in 16 mi West 25.3 mph - -   Scattered Clouds
2:50 PM 51.8 °F 46.4 °F 82% 30.27 in 6.2 mi West 26.5 mph 38.0 mph N/A   Scattered Clouds
3:20 PM 51.8 °F 44.6 °F 76% 30.27 in 6.2 mi West 29.9 mph - N/A   Scattered Clouds
3:50 PM 51.8 °F 44.6 °F 76% 30.24 in 6.2 mi West 31.1 mph - N/A   Partly Cloudy
4:20 PM 50.0 °F 44.6 °F 82% 30.27 in 6.2 mi West 21.9 mph - N/A   Mostly Cloudy
4:50 PM 50.0 °F 44.6 °F 82% 30.27 in 6.2 mi West 29.9 mph - N/A   Mostly Cloudy
5:20 PM 50.0 °F 44.6 °F 82% 30.30 in 6.2 mi WSW 18.4 mph - N/A   Mostly Cloudy
5:50 PM 49 °F 45 °F 83% 30.31 in 10 mi West 20.7 mph - -   Mostly Cloudy
5:50 PM 50.0 °F 44.6 °F 82% 30.30 in 6.2 mi West 17.3 mph - N/A   Mostly Cloudy
6:20 PM 51.8 °F 44.6 °F 76% 30.30 in 6.2 mi West 25.3 mph - N/A   Mostly Cloudy
6:50 PM 50.0 °F 46.4 °F 87% 30.30 in 5.0 mi West 18.4 mph - N/A   Light Drizzle
7:20 PM 50.0 °F 46.4 °F 87% 30.33 in 6.2 mi West 16.1 mph - N/A   Mostly Cloudy
7:50 PM 51.8 °F 46.4 °F 82% 30.30 in 6.2 mi West 23.0 mph - N/A   Overcast
8:20 PM 51.8 °F 44.6 °F 76% 30.33 in 6.2 mi West 17.3 mph - N/A   Overcast
8:50 PM 49 °F 45 °F 83% 30.32 in 40 mi WSW 20.7 mph - -   Mostly Cloudy
8:50 PM 51.8 °F 44.6 °F 76% 30.30 in 6.2 mi West 17.3 mph - N/A   Mostly Cloudy
9:20 PM 50.0 °F 44.6 °F 82% 30.30 in 6.2 mi SW 6.9 mph - N/A   Mostly Cloudy
9:50 PM 48.2 °F 42.8 °F 82% 30.33 in 6.2 mi South 6.9 mph - N/A   Overcast
10:20 PM 48.2 °F 44.6 °F 87% 30.33 in 6.2 mi SSW 6.9 mph - N/A   Mostly Cloudy
10:50 PM 48.2 °F 42.8 °F 82% 30.33 in 6.2 mi SSW 5.8 mph - N/A   Mostly Cloudy
11:20 PM 48.2 °F 42.8 °F 82% 30.33 in 6.2 mi SW 3.5 mph - N/A   Overcast
11:50 PM 47 °F 44 °F 85% 30.33 in 31 mi SSW 10.4 mph - -   Mostly Cloudy
11:50 PM 48.2 °F 42.8 °F 82% 30.33 in 6.2 mi SW 8.1 mph - N/A   Mostly Cloudy